Skip Page Navigation
NASA JPL Caltech
NASA Logo - Jet Propulsion Laboratory + View the NASA Portal
+ Near-Earth Object (NEO) Program
Search JPL
JPL Home Earth Solar System Stars & Galaxies Technology
JPL Solar System Dynamics
BODIES ORBITS EPHEMERIDES TOOLS PHYSICAL DATA DISCOVERY FAQ SITE MAP
JPL Small-Body Database Browser
Search: [ help ]  
7444 (1996 TM10)
Classification: Main-belt Asteroid          SPK-ID: 2007444
Ephemeris | Orbit Diagram | Orbital Elements | Physical Parameters | Discovery Circumstances ]

[ show orbit diagram ]
Orbital Elements at Epoch 2457600.5 (2016-Jul-31.0) TDB
Reference: JPL 14 (heliocentric ecliptic J2000)
 Element Value Uncertainty (1-sigma)   Units 
e .1660323209224744 5.5242e-08  
a 2.784962873589683 2.1749e-08 au
q 2.322569024004665 1.5659e-07 au
i 9.020407316336843 6.2261e-06 deg
node 355.679255708829 3.2571e-05 deg
peri 359.1209795663107 3.6216e-05 deg
M 113.7818565344408 1.735e-05 deg
tp 2457063.965001218791
(2015-Feb-10.46500122)
7.9191e-05 JED
period 1697.569414353594
4.65
1.9886e-05
5.444e-08
d
yr
n .2120679113066384 2.4842e-09 deg/d
Q 3.247356723174701 2.536e-08 au
  Orbit Determination Parameters
   # obs. used (total)      1013  
   data-arc span      16363 days (44.80 yr)  
   first obs. used      1971-05-14  
   last obs. used      2016-03-01  
   planetary ephem.      DE431  
   SB-pert. ephem.      SB431-BIG16  
   condition code      0  
   fit RMS      .52398  
   data source      ORB  
   producer      Otto Matic  
   solution date      2016-Mar-24 15:56:33  

Additional Information
 Earth MOID = 1.31687 au 
 Jupiter MOID = 2.18244 au 
 T_jup = 3.293 
[ show covariance matrix ]

Ephemeris | Orbit Diagram | Orbital Elements | Physical Parameters | Discovery Circumstances ]

Physical Parameter Table
Parameter Symbol Value Units Sigma Reference Notes
absolute magnitude H 13.2 mag n/a MPO302110  

7444 (1996 TM10)          Discovered 1996-Oct-09 by Ueda, S., Kaneda, H. at Kushiro
Reference: DISCOVERY.DBLast Updated: 2003-08-29

Alternate Designations
 1996 TM10 = 1980 FP = 1982 SV11 = 1988 AQ4 = 1991 RM37 
Ephemeris | Orbit Diagram | Orbital Elements | Physical Parameters | Discovery Circumstances ]
ABOUT SSD CREDITS/AWARDS PRIVACY/COPYRIGHT GLOSSARY LINKS
FirstGov 2016-Apr-30 09:03 UT
(server date/time)  
NASA Home Page
Site Manager:   Ryan S. Park
Webmaster  Alan B. Chamberlin